Lapse_Rate
7.2 7.1 6.9 7.0 6.7 6.9 6.6 6.6 6.4 5.9 6.2 5.8 5.3 5.3 5.1 5.2 5.3 5.2 5.2 4.7 4.4 3.3
7.7 6.8 6.6 6.2 5.7 5.7 6.5 6.6 6.4 5.9 5.3 5.1 5.2 5.2 5.2 5.0 4.7 5.2 4.9 4.9 4.3 4.3
7.2 6.3 5.9 5.3 4.9 4.9 6.1 6.1 6.2 5.8 5.7 5.2 5.1 5.1 4.9 4.9 4.9 5.0 4.9 4.5 4.1 4.3
6.7 6.3 5.4 5.0 5.0 5.0 5.5 6.0 5.9 5.5 5.8 5.2 5.1 5.1 5.0 4.5 4.8 5.3 4.6 4.4 4.3 4.4
6.7 6.4 5.8 4.6 4.3 4.7 5.5 5.6 6.0 5.5 5.3 5.0 4.9 4.9 4.5 4.4 4.3 4.4 4.3 4.1 4.0 3.2
6.6 5.7 5.2 4.8 3.9 4.3 5.2 4.8 5.1 5.3 5.0 5.1 4.9 4.6 4.6 4.2 4.3 4.2 3.9 3.6 3.8 2.9
6.6 5.6 5.0 4.6 4.3 4.2 5.2 5.1 5.2 5.1 5.1 4.9 4.8 4.3 4.2 3.9 3.6 3.5 3.4 3.2 3.3 2.4
6.1 5.7 5.0 4.7 3.8 3.3 3.8 4.2 4.6 4.3 4.4 4.2 4.0 3.8 3.7 3.4 3.0 2.0 1.1 1.2 1.2 1.4
5.8 5.6 4.9 4.7 3.6 2.9 2.7 2.5 2.7 2.9 3.7 3.5 3.3 3.7 3.6 2.5 1.5 1.1 0.7 0.7 1.0 1.3
5.5 5.4 4.9 5.1 4.3 3.3 2.7 2.1 2.1 2.2 2.3 2.5 2.9 3.8 3.4 2.2 1.1 0.6 0.5 0.8 0.9 1.5
5.6 5.2 4.8 5.4 4.9 3.9 3.1 2.6 2.3 2.3 2.4 2.5 3.0 3.9 2.6 1.6 0.8 0.6 0.8 1.0 1.4 1.4
5.5 5.0 4.6 5.3 5.0 4.5 3.6 3.2 3.0 3.1 2.9 3.0 3.8 3.1 2.2 1.0 0.6 0.0 0.4 1.3 1.7 1.7
5.8 5.0 4.6 5.1 4.9 4.5 4.0 3.9 3.8 3.5 3.5 4.5 3.8 3.4 2.0 0.9 0.2 0.3 1.3 2.1 2.6 3.0
6.0 4.8 4.5 4.8 5.0 4.5 4.0 3.4 3.0 3.3 3.8 3.9 4.0 3.9 2.8 2.6 1.6 1.4 2.5 3.0 3.4 4.4
Wind_Speed
11 6 7 7 7 7 7 4 5 6 6 6 6 8 8 7 7 8 8 9 6 4
12 11 10 11 9 9 9 5 6 5 6 5 5 6 6 6 7 7 7 7 7 7
12 13 11 11 11 11 10 7 6 5 6 7 8 7 7 4 5 8 6 6 8 7
12 14 9 11 12 12 10 7 5 5 5 7 7 6 6 6 7 8 6 7 10 10
12 13 12 12 13 13 6 5 5 6 6 5 6 7 7 7 7 7 6 8 7 6
12 13 13 13 13 11 8 5 5 5 7 6 7 7 7 7 7 6 7 7 8 8
12 13 13 12 12 11 8 4 5 5 5 5 6 6 6 6 6 6 5 5 6 8
10 12 13 11 10 9 8 3 3 4 5 5 5 5 6 6 6 7 7 6 5 5
9 12 13 10 9 7 6 4 4 2 2 4 3 9 12 10 8 8 9 8 8 8
8 11 12 10 8 6 5 4 3 2 2 3 3 9 15 16 8 9 9 10 10 9
8 11 12 10 7 4 3 2 2 1 1 3 3 13 17 18 10 10 10 10 11 13
9 11 12 10 6 3 2 1 1 1 2 3 6 16 18 16 11 12 12 10 12 12
9 10 11 9 5 2 0 2 2 5 5 11 8 15 17 15 10 12 10 11 12 18
7 8 10 8 2 1 4 5 6 8 7 8 8 10 17 20 11 11 10 8 8 8
Wind_Direction
315 309 306 298 301 292 281 253 232 233 220 203 183 200 188 196 199 199 203 188 193 172
323 314 303 296 293 288 283 253 257 223 215 190 180 181 194 202 194 196 194 191 184 181
325 313 307 301 291 283 282 251 239 234 207 192 188 192 192 183 190 191 196 180 180 191
324 318 303 304 296 291 263 253 225 217 217 199 186 183 182 186 187 195 178 189 191 192
324 320 319 309 306 309 255 267 232 209 201 197 192 184 183 188 186 196 185 181 176 175
324 322 316 309 304 299 281 248 253 246 204 191 189 182 184 186 182 182 184 179 181 170
320 320 313 313 313 298 282 251 242 231 220 198 181 183 181 178 176 163 161 168 168 167
314 318 315 315 316 315 313 303 282 247 219 193 179 183 173 162 148 133 114 97 105 120
312 318 316 311 312 316 320 329 333 333 243 197 178 183 165 147 133 127 126 119 107 115
309 314 314 305 306 317 312 319 325 309 179 164 157 167 147 134 123 126 124 125 121 114
311 310 313 303 302 306 304 323 305 294 219 157 171 149 138 125 116 115 115 121 123 122
315 309 313 309 299 296 307 317 296 184 152 134 131 136 135 118 115 109 108 112 115 115
311 307 308 308 297 288 79 67 91 80 83 109 116 133 132 121 119 115 113 107 111 118
304 308 304 304 270 125 93 87 78 77 73 83 104 132 135 129 124 124 118 114 116 120